KAP65 TJSJ-TIST

Flight info

Callsign KAP65
Flight time N/A
Altitude 3400
Route SJU RTE2 STT
Aircraft C404/L-SDFR/C

Departure

Time 2026-04-30 05:26
Airport Luis Munoz Marin International Airport (TJSJ)

Arrival

Time N/A
Airport Cyril E. King Airport (TIST)
Time Latitude Longitude Altitude Speed Heading
2026-04-30 05:05 18.43992 -66.00254 -31 ft 0 kts 194°
2026-04-30 05:21 18.43985 -66.00244 -52 ft 6 kts 85°
2026-04-30 05:21 18.44002 -66.00181 -46 ft 9 kts 56°
2026-04-30 05:21 18.44051 -66.00153 -58 ft 9 kts 353°
2026-04-30 05:22 18.44106 -66.00167 -45 ft 8 kts 335°
2026-04-30 05:22 18.44157 -66.00193 -45 ft 8 kts 335°
2026-04-30 05:22 18.44185 -66.00234 -46 ft 8 kts 263°
2026-04-30 05:22 18.44169 -66.00289 -45 ft 7 kts 239°
2026-04-30 05:23 18.44148 -66.00342 -50 ft 8 kts 248°
2026-04-30 05:23 18.44125 -66.00402 -47 ft 9 kts 261°
2026-04-30 05:23 18.44137 -66.00476 -48 ft 13 kts 298°
2026-04-30 05:23 18.44171 -66.00576 -53 ft 14 kts 276°
2026-04-30 05:24 18.44186 -66.00649 -59 ft 5 kts 340°
2026-04-30 05:24 18.44215 -66.00640 -53 ft 6 kts 45°
2026-04-30 05:24 18.44232 -66.00608 -58 ft 0 kts 70°
2026-04-30 05:25 18.44243 -66.00578 -56 ft 21 kts 68°
2026-04-30 05:25 18.44380 -66.00236 -57 ft 77 kts 68°
2026-04-30 05:25 18.44662 -65.99596 54 ft 105 kts 61°
2026-04-30 05:26 18.45027 -65.98882 396 ft 112 kts 57°
2026-04-30 05:26 18.45465 -65.98202 853 ft 111 kts 58°
2026-04-30 05:26 18.45857 -65.97529 1303 ft 110 kts 60°
2026-04-30 05:26 18.46184 -65.96804 1771 ft 106 kts 66°
2026-04-30 05:27 18.46484 -65.96076 2215 ft 105 kts 67°
2026-04-30 05:27 18.46739 -65.95373 2671 ft 104 kts 88°
2026-04-30 05:27 18.46630 -65.94616 3086 ft 107 kts 97°
2026-04-30 05:27 18.46571 -65.93831 3478 ft 108 kts 89°
2026-04-30 05:28 18.46602 -65.93027 3531 ft 115 kts 84°
2026-04-30 05:28 18.46737 -65.92158 3632 ft 127 kts 77°
2026-04-30 05:28 18.46957 -65.91264 3917 ft 124 kts 74°
2026-04-30 05:28 18.47289 -65.90376 4009 ft 137 kts 63°
2026-04-30 05:29 18.47857 -65.89638 4258 ft 135 kts 41°